Terminal Aerodrome Forecast
Issued by NWS Chicago, IL

Home | Current Version | Previous Version | Text Only | Print | Product List | Glossary Off
Versions: 1 2 3 4 5 6 7 8 9 10 11 12 13 14 15 16 17 18 19 20 21 22 23 24 25 26 27 28 29 30 31 32 33

246
FTUS43 KLOT 212101 AAB
TAFRFD
TAF AMD
KRFD 212101Z 2121/2218 20013G20KT P6SM SCT035 BKN250
     FM220100 20009KT P6SM FEW020 BKN120
     FM221200 25008KT P6SM BKN040 BKN120 PROB30 2212/2216 4SM TSRA
      BKN030CB=

USA.gov is the U.S. government's official web portal to all federal, state and local government web resources and services.